| time (UTC) | temp F | wind direction | speed knots | gust knots | rain 1hr in | rain 24hr in | rain mn in | humidity % | barometer mb |
| 20260906103102 | 67 | 39 | 2.6 | 7.8 | 0.00 | 0.01 | 0.00 | 93 | 1014.0 |
| 20260906101601 | 68 | 20 | 3.5 | 7.8 | 0.00 | 0.01 | 0.00 | 93 | 1013.9 |
| 20260906100054 | 68 | 38 | 3.5 | 8.7 | 0.00 | 0.01 | 0.00 | 92 | 1013.9 |
| 20260906094604 | 68 | 28 | 2.6 | 7.0 | 0.00 | 0.01 | 0.00 | 92 | 1013.8 |
| 20260906093104 | 68 | 36 | 2.6 | 8.7 | 0.00 | 0.01 | 0.00 | 92 | 1013.6 |
| 20260906091554 | 68 | 24 | 3.5 | 8.7 | 0.00 | 0.01 | 0.00 | 91 | 1013.6 |
| 20260906090138 | 68 | 12 | 3.5 | 7.8 | 0.00 | 0.01 | 0.00 | 91 | 1013.4 |
| 20260906084605 | 69 | 27 | 2.6 | 8.7 | 0.00 | 0.01 | 0.00 | 91 | 1013.5 |
| 20260906083056 | 69 | 36 | 2.6 | 7.0 | 0.00 | 0.01 | 0.00 | 90 | 1013.3 |
| 20260906081602 | 69 | 24 | 3.5 | 7.0 | 0.00 | 0.01 | 0.00 | 90 | 1013.2 |
| 20260906080108 | 69 | 34 | 3.5 | 7.8 | 0.00 | 0.01 | 0.00 | 90 | 1012.9 |
| 20260906074602 | 69 | 21 | 2.6 | 7.0 | 0.00 | 0.01 | 0.00 | 89 | 1013.0 |
| 20260906073056 | 70 | 26 | 2.6 | 7.0 | 0.00 | 0.01 | 0.00 | 88 | 1013.2 |
| 20260906071548 | 70 | 26 | 1.7 | 7.0 | 0.00 | 0.01 | 0.00 | 88 | 1013.3 |
| 20260906070058 | 71 | 28 | 2.6 | 7.0 | 0.00 | 0.01 | 0.00 | 87 | 1013.2 |
| 20260906064600 | 71 | 26 | 2.6 | 7.0 | 0.00 | 0.01 | 0.00 | 86 | 1013.3 |
| 20260906063101 | 72 | 26 | 2.6 | 6.1 | 0.00 | 0.01 | 0.00 | 85 | 1013.4 |
| 20260906061605 | 73 | 19 | 1.7 | 6.1 | 0.00 | 0.01 | 0.00 | 84 | 1013.6 |
| 20260906060059 | 73 | 19 | 1.7 | 4.3 | 0.00 | 0.01 | 0.00 | 83 | 1013.7 |
| 20260906054604 | 74 | 23 | 1.7 | 4.3 | 0.00 | 0.01 | 0.00 | 82 | 1013.6 |
| 20260906053113 | 74 | 23 | 2.6 | 8.7 | 0.00 | 0.01 | 0.00 | 82 | 1013.7 |
| 20260906051557 | 75 | 34 | 3.5 | 8.7 | 0.00 | 0.01 | 0.00 | 81 | 1013.6 |
| 20260906050100 | 75 | 23 | 2.6 | 7.8 | 0.00 | 0.01 | 0.00 | 81 | 1013.4 |
| 20260906044553 | 75 | 34 | 4.3 | 9.6 | 0.00 | 0.01 | 0.00 | 81 | 1013.4 |
| 20260906043058 | 76 | 22 | 2.6 | 9.6 | 0.00 | 0.01 | 0.00 | 81 | 1013.1 |
| 20260906041559 | 76 | 23 | 3.5 | 9.6 | 0.00 | 0.01 | 0.00 | 81 | 1012.9 |
| 20260906040054 | 77 | 22 | 4.3 | 9.6 | 0.00 | 0.01 | 0.00 | 81 | 1012.9 |
| 20260906034557 | 77 | 52 | 2.6 | 7.8 | 0.00 | 0.01 | 0.01 | 81 | 1013.0 |
| 20260906033055 | 77 | 15 | 3.5 | 8.7 | 0.00 | 0.01 | 0.01 | 81 | 1012.8 |
| 20260906031557 | 77 | 24 | 3.5 | 7.0 | 0.00 | 0.01 | 0.01 | 80 | 1012.7 |
| 20260906030059 | 78 | 19 | 2.6 | 7.8 | 0.00 | 0.01 | 0.01 | 79 | 1012.6 |
| 20260906024615 | 78 | 51 | 3.5 | 9.6 | 0.00 | 0.01 | 0.01 | 76 | 1012.4 |
| 20260906023105 | 78 | 5 | 2.6 | 5.2 | 0.00 | 0.01 | 0.01 | 74 | 1012.2 |
| 20260906021600 | 78 | 0 | 0.0 | 0.0 | 0.00 | 0.01 | 0.01 | 72 | 1011.9 |
| 20260906020105 | 79 | 0 | 0.0 | 0.0 | 0.00 | 0.01 | 0.01 | 71 | 1011.8 |
| 20260906014556 | 79 | 0 | 0.0 | 0.0 | 0.00 | 0.01 | 0.01 | 70 | 1011.9 |
| 20260906013058 | 80 | 0 | 0.0 | 0.0 | 0.00 | 0.01 | 0.01 | 69 | 1011.9 |
| 20260906011603 | 81 | 0 | 0.0 | 0.0 | 0.00 | 0.01 | 0.01 | 67 | 1011.6 |
| 20260906010130 | 81 | 0 | 0.0 | 1.7 | 0.00 | 0.01 | 0.01 | 67 | 1011.5 |
| 20260906004557 | 82 | 0 | 0.9 | 2.6 | 0.00 | 0.01 | 0.01 | 66 | 1011.4 |
| 20260906003100 | 83 | 128 | 0.9 | 5.2 | 0.00 | 0.01 | 0.01 | 65 | 1011.3 |
| 20260906001606 | 85 | 124 | 2.6 | 5.2 | 0.00 | 0.01 | 0.01 | 63 | 1011.5 |
| 20260906000056 | 87 | 26 | 0.9 | 2.6 | 0.00 | 0.01 | 0.01 | 59 | 1011.5 |
| 20260905234605 | 88 | 26 | 1.7 | 7.0 | 0.00 | 0.01 | 0.01 | 57 | 1011.4 |
| 20260905233047 | 89 | 17 | 1.7 | 4.3 | 0.00 | 0.01 | 0.01 | 55 | 1011.2 |
| 20260905231557 | 89 | 351 | 2.6 | 7.0 | 0.00 | 0.01 | 0.01 | 54 | 1011.1 |
| 20260905230108 | 90 | 24 | 2.6 | 11.3 | 0.00 | 0.01 | 0.01 | 54 | 1011.2 |
| 20260905224558 | 90 | 28 | 3.5 | 7.8 | 0.00 | 0.01 | 0.01 | 54 | 1011.0 |
| 20260905223057 | 90 | 17 | 5.2 | 12.2 | 0.00 | 0.01 | 0.01 | 53 | 1010.8 |
| 20260905221557 | 91 | 311 | 3.5 | 13.0 | 0.00 | 0.01 | 0.01 | 52 | 1010.7 |
| 20260905220100 | 92 | 339 | 3.5 | 8.7 | 0.00 | 0.01 | 0.01 | 52 | 1010.8 |
| 20260905214603 | 92 | 31 | 2.6 | 8.7 | 0.00 | 0.01 | 0.01 | 52 | 1010.8 |
| 20260905213101 | 91 | 349 | 1.7 | 9.6 | 0.00 | 0.01 | 0.01 | 54 | 1010.7 |
| 20260905211600 | 91 | 351 | 4.3 | 11.3 | 0.00 | 0.01 | 0.01 | 53 | 1010.9 |
| 20260905210058 | 90 | 344 | 3.5 | 9.6 | 0.00 | 0.01 | 0.01 | 54 | 1011.0 |
| 20260905204605 | 90 | 22 | 4.3 | 10.4 | 0.01 | 0.01 | 0.01 | 56 | 1011.1 |
| 20260905203103 | 88 | 355 | 1.7 | 4.3 | 0.01 | 0.01 | 0.01 | 60 | 1011.2 |
| 20260905201606 | 87 | 0 | 0.9 | 2.6 | 0.01 | 0.01 | 0.01 | 65 | 1011.6 |
| 20260905200058 | 89 | 22 | 1.7 | 7.0 | 0.01 | 0.01 | 0.01 | 59 | 1011.6 |
| 20260905194555 | 94 | 13 | 3.5 | 9.6 | 0.00 | 0.00 | 0.00 | 51 | 1011.8 |
| 20260905193051 | 96 | 45 | 0.9 | 7.8 | 0.00 | 0.00 | 0.00 | 45 | 1011.8 |
| 20260905191558 | 97 | 5 | 3.5 | 7.8 | 0.00 | 0.00 | 0.00 | 44 | 1011.9 |
| 20260905190103 | 95 | 299 | 1.7 | 4.3 | 0.00 | 0.00 | 0.00 | 47 | 1012.1 |
| 20260905184609 | 96 | 274 | 2.6 | 8.7 | 0.00 | 0.00 | 0.00 | 46 | 1012.3 |
| 20260905183114 | 92 | 32 | 3.5 | 8.7 | 0.00 | 0.00 | 0.00 | 48 | 1012.5 |
| 20260905181558 | 94 | 27 | 3.5 | 9.6 | 0.00 | 0.00 | 0.00 | 46 | 1012.6 |
| 20260905180057 | 96 | 250 | 1.7 | 5.2 | 0.00 | 0.00 | 0.00 | 46 | 1012.8 |
| 20260905174601 | 93 | 82 | 0.9 | 4.3 | 0.00 | 0.00 | 0.00 | 51 | 1013.0 |
| 20260905173056 | 92 | 68 | 0.9 | 6.1 | 0.00 | 0.00 | 0.00 | 52 | 1013.2 |
| 20260905171604 | 93 | 55 | 1.7 | 7.0 | 0.00 | 0.00 | 0.00 | 51 | 1013.6 |
| 20260905170108 | 92 | 0 | 0.0 | 7.0 | 0.00 | 0.00 | 0.00 | 53 | 1013.8 |
| 20260905164605 | 89 | 109 | 0.9 | 6.1 | 0.00 | 0.00 | 0.00 | 56 | 1013.9 |
| 20260905163104 | 89 | 44 | 1.7 | 7.0 | 0.00 | 0.00 | 0.00 | 55 | 1013.9 |
| 20260905161602 | 89 | 0 | 1.7 | 6.1 | 0.00 | 0.00 | 0.00 | 56 | 1013.9 |
| 20260905154554 | 87 | 147 | 2.6 | 6.1 | 0.00 | 0.00 | 0.00 | 58 | 1014.5 |
| 20260905153102 | 86 | 101 | 1.7 | 5.2 | 0.00 | 0.00 | 0.00 | 60 | 1014.4 |
| 20260905151558 | 85 | 46 | 2.6 | 5.2 | 0.00 | 0.00 | 0.00 | 60 | 1014.4 |
| 20260905150100 | 84 | 147 | 1.7 | 6.1 | 0.00 | 0.00 | 0.00 | 62 | 1014.2 |
| 20260905144553 | 83 | 49 | 0.9 | 7.0 | 0.00 | 0.00 | 0.00 | 67 | 1014.7 |
| 20260905143101 | 83 | 81 | 0.9 | 7.8 | 0.00 | 0.00 | 0.00 | 67 | 1014.2 |
| 20260905141554 | 83 | 22 | 1.7 | 7.0 | 0.00 | 0.00 | 0.00 | 65 | 1014.5 |
| 20260905140127 | 82 | 13 | 2.6 | 4.3 | 0.00 | 0.00 | 0.00 | 67 | 1014.2 |
| 20260905134604 | 81 | 0 | 0.9 | 3.5 | 0.00 | 0.00 | 0.00 | 71 | 1014.0 |
| 20260905133055 | 79 | 201 | 0.9 | 3.5 | 0.00 | 0.00 | 0.00 | 73 | 1014.1 |
| 20260905131616 | 77 | 0 | 0.0 | 0.0 | 0.00 | 0.00 | 0.00 | 75 | 1014.2 |
| 20260905130058 | 76 | 0 | 0.0 | 0.0 | 0.00 | 0.00 | 0.00 | 78 | 1014.2 |
| 20260905124605 | 75 | 0 | 0.0 | 0.0 | 0.00 | 0.00 | 0.00 | 81 | 1014.2 |
| 20260905123110 | 74 | 0 | 0.0 | 0.0 | 0.00 | 0.00 | 0.00 | 81 | 1014.3 |
| 20260905121558 | 73 | 0 | 0.0 | 0.0 | 0.00 | 0.00 | 0.00 | 81 | 1014.3 |
| 20260905120058 | 73 | 0 | 0.0 | 0.0 | 0.00 | 0.00 | 0.00 | 81 | 1014.2 |
| 20260905114556 | 73 | 0 | 0.0 | 0.0 | 0.00 | 0.00 | 0.00 | 80 | 1014.0 |
| 20260905113051 | 73 | 0 | 0.0 | 0.0 | 0.00 | 0.00 | 0.00 | 80 | 1013.8 |
| 20260905111603 | 73 | 0 | 0.0 | 0.0 | 0.00 | 0.00 | 0.00 | 80 | 1013.6 |
| 20260905110056 | 73 | 0 | 0.0 | 0.0 | 0.00 | 0.00 | 0.00 | 79 | 1013.4 |
| 20260905104609 | 73 | 0 | 0.0 | 0.0 | 0.00 | 0.00 | 0.00 | 79 | 1013.4 |